Regional Weather Roundup
Issued by NWS

Home | Current Version | Previous Version | Text Only | Print | Product List | Glossary Off
Versions: 1 2 3 4 5 6 7 8 9 10 11 12 13 14 15 16 17 18 19 20 21 22 23 24 25 26 27

000
ASUS45 KPSR 131410
RWRAZ

ARIZONA HOURLY REGIONAL WEATHER ROUNDUP
NATIONAL WEATHER SERVICE PHOENIX AZ
700 AM MST WED DEC 13 2017

NOTE: FAIR INDICATES FEW OR NO CLOUDS BELOW 12,000 FEET WITH NO
SIGNIFICANT WEATHER AND/OR OBSTRUCTIONS TO VISIBILITY.

AZZ001>003-036-131500-
NORTHWEST ARIZONA

CITY           SKY/WX    TMP DP  RH WIND       PRES   REMARKS
BULLHEAD CITY  CLEAR     61   3  10 N13       30.07R
KINGMAN        PTCLDY    33   4  29 NE3       30.15R
$$

AZZ004>008-015-016-018-131500-
NORTH CENTRAL ARIZONA

CITY           SKY/WX    TMP DP  RH WIND       PRES   REMARKS
GRAND CANYON   MOCLDY    11  -1  58 NE3       30.24S
WILLIAMS       MOCLDY    21  -2  35 S13       30.21S WCI   9
PRESCOTT       MOCLDY    27   2  34 S7        30.19S WCI  19
FLAGSTAFF      MOCLDY    11  -3  53 CALM      30.25S
PAYSON         CLEAR     41  -4  15 NE5       30.18S
PAGE           CLOUDY    28   9  44 SW3       30.24S
$$

AZZ009>014-017-131500-
NORTHEAST ARIZONA

CITY           SKY/WX    TMP DP  RH WIND       PRES   REMARKS
WINSLOW        CLOUDY    10 -11  38 SE5       30.27S WCI   2
SAINT JOHNS    CLOUDY    15  -6  39 NE3       30.25R
WINDOW ROCK    MOCLDY     9  -8  46 CALM      30.25S
SHOW LOW       MOCLDY    18  -6  35 CALM      30.25S
$$

AZZ540-542>544-546-548-131500-
GREATER PHOENIX AREA

CITY           SKY/WX    TMP DP  RH WIND       PRES   REMARKS
PHOENIX        PTCLDY    50  19  29 CALM      30.04R
BUCKEYE        PTCLDY    45   0  15 N6        30.05R
GLENDALE       PTCLDY    45  14  29 CALM      30.06R
LUKE AFB       CLEAR     43  13  29 CALM      30.04R
DEER VALLEY    CLEAR     48   5  17 CALM      30.05R
SCOTTSDALE     CLEAR     47  18  31 CALM      30.06R
MESA-FALCON    CLEAR     55   7  14 N8        30.06R
CHANDLER       CLEAR     46  18  31 CALM      30.06R
$$

AZZ539-553-131500-
SOUTHWEST MARICOPA COUNTY AND PINAL COUNTY

CITY           SKY/WX    TMP DP  RH WIND       PRES   REMARKS
CASA GRANDE    NOT AVBL
GILA BEND      PTCLDY    48   1  14 NE5       30.03
$$

AZZ503-504-507>509-131500-
SOUTHEAST ARIZONA

CITY           SKY/WX    TMP DP  RH WIND       PRES   REMARKS
TUCSON         CLEAR     49  19  30 SE6       30.09R
DAVIS-MONTHAN  CLEAR     51  16  25 SE16      30.07R
RYAN FIELD     CLEAR     46  19  34 E8        30.08R
NOGALES        CLEAR     38  22  52 CALM      30.11R
SIERRA VISTA   CLEAR     38  19  46 CALM      30.16R
DOUGLAS        CLEAR     30  14  51 NE3       30.15R
SAFFORD        CLEAR     45   4  18 SE16      30.16R
$$

AZZ532-131500-
SOUTHWEST ARIZONA

CITY           SKY/WX    TMP DP  RH WIND       PRES   REMARKS
YUMA           CLEAR     52   9  17 N6        30.01R
$$

CAZ041-043-047-048-061-525>527-560>570-131500-
SOUTHERN CALIFORNIA

CITY           SKY/WX    TMP DP  RH WIND       PRES   REMARKS
DOWNTOWN L.A.  CLEAR     50  22  33 N3        30.00S
L.A. AIRPORT   CLEAR     55  18  23 E3        30.00S
SAN DIEGO      PTCLDY    51  19  28 CALM      30.02R
BURBANK        CLEAR     48  16  27 CALM      30.01S
ONTARIO        PTCLDY    52  12  20 VRB3      30.03R
RIVERSIDE      CLEAR     50  14  23 NE7       30.03R
PALM SPRINGS   CLEAR     57  13  17 NW9       30.04S
EL CENTRO NAS  PTCLDY    47   4  17 W6        30.05R
IMPERIAL       CLEAR     46   8  21 W9        30.02R
BLYTHE         CLEAR     41  -5  14 CALM      30.06R
NEEDLES        CLEAR     53   5  14 W9        30.08R
$$

NVZ020-UTZ003-131500-
SOUTHERN NEVADA-UTAH

CITY           SKY/WX    TMP DP  RH WIND       PRES   REMARKS
LAS VEGAS      CLEAR     44   6  21 CALM      30.14R
SALT LAKE CITY CLOUDY    23  22  96 CALM      30.36F FOG
$$

NMZ009-TXZ055-131500-
NEW MEXICO-WEST TEXAS

CITY           SKY/WX    TMP DP  RH WIND       PRES   REMARKS
ALBUQUERQUE    CLOUDY    26   5  40 CALM      30.22R
EL PASO        CLEAR     34  12  40 N7        30.18R WCI  28
$$


........................KEY........................
SKY/WX - SKY CONDITION/WEATHER
TMP    - TEMPERATURE IN FAHRENHEIT
DP     - DEW POINT IN FAHRENHEIT
RH     - RELATIVE HUMIDITY IN PERCENT
WIND   - DIRECTION AND SPEED IN MILES PER HOUR (MPH)
VRB    - VARIABLE WIND DIRECTION
PRES   - MEAN SEA LEVEL PRESSURE IN INCHES OF MERCURY
         F - FALLING PRESSURE   R - RISING PRESSURE
         S - STEADY PRESSURE
VSB    - VISIBILITY IN MILES
HX     - HEAT INDEX IN FAHRENHEIT
WCI    - WIND CHILL INDEX IN FAHRENHEIT
TC     - TEMPERATURE IN CELSIUS WHICH IS ALSO KNOWN AS
         TEMPERATURE IN CENTIGRADE
AFB    - AIR FORCE BASE
         LUKE AFB IS LUKE AIR FORCE BASE
         DAVIS-MONTHAN IS DAVIS-MONTHAN AIR FORCE BASE
NAS    - NAVAL AIR STATION
         EL CENTRO NAS IS EL CENTRO NAVAL AIR STATION
N/A    - NOT AVAILABLE





USA.gov is the U.S. government's official web portal to all federal, state and local government web resources and services.